Regional Weather Roundup
Issued by NWS

Home | Current Version | Previous Version | Text Only | Print | Product List | Glossary Off
Versions: 1 2 3 4 5 6 7 8 9 10 11 12 13 14 15 16 17 18 19 20 21 22 23 24 25 26 27 28 29 30 31 32 33 34 35 36 37 38 39 40 41 42 43 44 45 46 47 48 49 50

000
ASUS43 KMKX 222310
RWRWI

WISCONSIN REGIONAL WEATHER ROUNDUP
NATIONAL WEATHER SERVICE MILWAUKEE/SULLIVAN WI
500 PM CST SUN JAN 22 2017

NOTE: "FAIR" INDICATES FEW OR NO CLOUDS BELOW 12,000 FEET WITH NO
SIGNIFICANT WEATHER AND/OR OBSTRUCTIONS TO VISIBILITY.

WIZ001-002-006>008-014>016-023>028-230000-
NORTHWEST WISCONSIN

CITY           SKY/WX    TMP DP  RH WIND       PRES   REMARKS
SUPERIOR ARPT  CLOUDY    37  36  98 CALM      29.72R
ASHLAND        FOG       36  34  92 CALM      29.71R VSB 1/2
HAYWARD        CLOUDY    37  34  89 CALM      29.70R
SIREN          CLOUDY    37  36  97 W3        29.72R FOG
CUMBERLAND     CLOUDY    34  32  93 W5        29.70S FOG     WCI  30
RICE LAKE      CLOUDY    36  35  95 W5        29.72R FOG     WCI  32
CHETEK         CLOUDY    36  35  96 CALM      29.71R
LADYSMITH      CLOUDY    36  35  98 NW5       29.71R WCI  32
EAU CLAIRE     CLOUDY    36  34  92 CALM      29.70R
MENOMONIE        N/A    N/A N/A N/A MISG        N/A
NEW RICHMOND   CLOUDY    35  35 100 NW5       29.73R WCI  31
OSCEOLA        CLOUDY    37  37 100 W3        29.76R
$$

WIZ003>005-009-010-017-018-230000-
NORTH CENTRAL WISCONSIN

CITY           SKY/WX    TMP DP  RH WIND       PRES   REMARKS
MANITOWISH WTR CLOUDY    33  33 100 N5        29.66R WCI  29
ARBOR VITAE    CLOUDY    37  36  98 N5        29.66R WCI  33
WOODRUFF       CLOUDY    37  36  98 N5        29.66R WCI  33
RHINELANDER    CLOUDY    37  37 100 CALM      29.65R FOG
EAGLE RIVER    CLOUDY    35  35 100 NW5       29.64R FOG     WCI  31
LAND O LAKES   CLOUDY    35  35 100 NW5       29.66R FOG     WCI  31
PHILLIPS       CLOUDY    34  34 100 NW5       29.67R WCI  30
TOMAHAWK       CLOUDY    35  34  96 NW3       29.67R FOG
MEDFORD        FOG       34  34  99 NW5       29.67R VSB 1/2 WCI  30
MERRILL        CLOUDY    37  37  97 CALM        N/A
$$

WIZ029-030-035-036-043>047-230000-
CENTRAL WISCONSIN

CITY           SKY/WX    TMP DP  RH WIND       PRES   REMARKS
WAUSAU         CLOUDY    36  35  96 NW3       29.65R FOG
MOSINEE        CLOUDY    36  36 100 NW7       29.67R WCI  30
MARSHFIELD     CLOUDY    35  33  92 NW8       29.66R FOG     WCI  29
STEVENS POINT  CLOUDY    36  36 100 CALM      29.68R
WAUPACA        CLOUDY    39  38  99 CALM      29.67R FOG
WAUTOMA        CLOUDY    36  35  96 CALM      29.68R
WISC RAPIDS    CLOUDY    37  36  96 NW7       29.68S WCI  32
CAMP DOUGLAS   CLOUDY    37  36  99 W6        29.69R WCI  32
$$

WIZ011>013-019>022-031-037>040-048>050-230000-
NORTHEAST WISCONSIN

CITY           SKY/WX    TMP DP  RH WIND       PRES   REMARKS
ANTIGO         CLOUDY    36  36 100 NW6       29.65R WCI  31
SHAWANO        CLOUDY    40  38  96 CALM      29.66S
OCONTO         CLOUDY    37  36  99 CALM      29.66S VSB<1/4
STURGEON BAY   FOG       37  37 100 CALM      29.67R VSB 1/4
GREEN BAY      FOG       39  39 100 CALM      29.67R VSB 1/4
MANITOWOC      FOG       37  36  96 MISG      29.68S VSB 1
APPLETON       CLOUDY    37  37 100 CALM      29.65R FOG
CLINTONVILLE   CLOUDY    37  36  93 W3        29.66S
OSHKOSH        CLOUDY    38  36  92 CALM      29.66R FOG
$$

WIZ032>034-041-042-053>061-230000-
SOUTHWEST WISCONSIN

CITY           SKY/WX    TMP DP  RH WIND       PRES   REMARKS
LA CROSSE      CLOUDY    40  35  83 NW9       29.71R WCI  34
SPARTA         CLOUDY    35  35 100 NW5       29.71R FOG     WCI  31
VIROQUA        CLOUDY    35  35 100 CALM      29.68S VSB<1/4
BOSCOBEL       CLOUDY    40  36  86 CALM      29.71R
PRAIRIE DU CHI CLOUDY    37  35  92 CALM      29.71S
PLATTEVILLE    CLOUDY    38  38  99 NW8       29.69R WCI  32
$$

WIZ056-057-062-063-064-067-068-230000-
SOUTH CENTRAL WISCONSIN

CITY           SKY/WX    TMP DP  RH WIND       PRES   REMARKS
REEDSBURG      CLOUDY    37  37 100 CALM      29.68R
BARABOO/DELLS  CLOUDY    37  36  99 CALM      29.68R
LONE ROCK      CLOUDY    38  36  92 W3        29.69S
MINERAL POINT  CLOUDY    37  37 100 NW6       29.68R FOG     WCI  33
MADISON        CLOUDY    39  37  92 NW3       29.68R FOG
MIDDLETON      CLOUDY    39  39 100 NW3       29.68S
WATERTOWN      CLOUDY    39  38  99 NW3       29.66S
MONROE         CLOUDY    37  37 100 N5        29.66R WCI  34
JANESVILLE     CLOUDY    39  39 100 CALM      29.66R FOG
$$

WIZ051-052-058>065-066-070>072-230000-
SOUTHEAST WISCONSIN

CITY           SKY/WX    TMP DP  RH WIND       PRES   REMARKS
MILWAUKEE      MOCLDY    43  37  79 N5        29.66R
WAUKESHA       CLOUDY    37  36  93 NW7       29.66R WCI  32
MILWAUKEE/TIMM PTCLDY    39  34  81 N7        29.66R WCI  34
RACINE         CLOUDY    40  37  89 CALM      29.67R
KENOSHA        CLOUDY    39  35  86 NW3       29.66R
FOND DU LAC    CLOUDY    39  35  86 CALM      29.66S
SHEBOYGAN      CLOUDY    37  35  92 NW6       29.67R WCI  32
WEST BEND      MOCLDY    37  36  93 NW8       29.66R WCI  31
JUNEAU         CLOUDY    38  36  93 NW3       29.67S
$$

LSZ147-162-230000-
LAKE SUPERIOR

STATION/POSITION TIME  TEMP    WIND        PRES    WAVE
                       AIR SEA DIR/SP/G            HT/PER
                 (UTC) (F)     (DEG/KT/KT) (MB)    (FT/S)
DEVILS ISLAND    2200   36        CALM     1006.5R
PORT WING        2240   35      CALM  /  1 1006.4R
SAXON HARBOR     2240   34     300/  3/  4 1006.1R
$$

LMZ867-665-643>646-230000-
LAKE MICHIGAN

STATION/POSITION TIME  TEMP    WIND        PRES    WAVE
                       AIR SEA DIR/SP/G            HT/PER
                 (UTC) (F)     (DEG/KT/KT) (MB)    (FT/S)
NORTHPORT PIER   2240   34        CALM     1004.7R
SISTER BAY       2205   35        CALM       N/A
KEWAUNEE LAKESHO 2242   38     230/  1/  5   N/A
SHEBOYGAN LAKESH 2300   38     300/  8/  9 1005.0R
PORT WASHINGTON  2240   40      40/  4/  5 1005.4R
KENOSHA   LAKESH 2300   37      30/  4/  5 1004.7
$$

TC  - TEMPERATURE IN CELSIUS
VSB - VISIBILITY IN STATUTE MILES
WCI - WIND CHILL INDEX
HX  - HEAT INDEX




USA.gov is the U.S. government's official web portal to all federal, state and local government web resources and services.